Regional Weather Roundup
Issued by NWS

Home | Current Version | Previous Version | Graphics & Text | Print | Product List | Glossary On
Versions: 1 2 3 4 5 6 7 8 9 10 11 12 13 14 15 16 17 18 19 20 21 22 23 24 25 26 27
000
ASUS45 KSLC 291310
RWRUT

UTAH REGIONAL WEATHER ROUNDUP
NATIONAL WEATHER SERVICE SALT LAKE CITY UT
700 AM MDT THU SEP 29 2016

UTZ001>011-023>025-291400-

NORTHERN UTAH

CITY           SKY/WX    TMP DP  RH WIND       PRES   REMARKS
BRIGHAM CITY     N/A     59  52  78 W5        30.21R
DUGWAY         MOCLDY    56  48  74 CALM      30.21
HILL AFB       CLOUDY    60  47  62 E10       30.22R
LOGAN          MOCLDY    55  51  86 CALM      30.21R
OGDEN          MOCLDY    60  49  66 S12       30.20R
PROVO AIRPORT  PTCLDY    57  48  72 E5        30.25R
SALT LAKE CITY MOCLDY    63  50  62 SE10      30.20R
VERNAL         CLOUDY    57  50  77 CALM      30.34R
WENDOVER       MOCLDY    59  48  67 NE7       30.18R
HEBER CITY     PTCLDY    45  41  87 CALM      30.28S
WEST JORDAN    CLEAR     61  46  58 S12       30.24R

$$

UTZ012>022-026-027-291400-

SOUTHERN/CENTRAL UTAH

CITY           SKY/WX    TMP DP  RH WIND       PRES   REMARKS
BLANDING       CLOUDY    56  53  91 CALM      30.47R
BRYCE CANYON   CLOUDY    47  45  93 CALM      30.44R
CEDAR CITY     PTCLDY    57  46  66 S10       30.29R
DELTA          PTCLDY    55  45  67 S9        30.25R
MILFORD        CLEAR     49  43  80 S9        30.26R
MOAB/CYNLANDS  CLOUDY    62  56  80 CALM      30.31R
PRICE          MOCLDY    56  49  77 E7        30.36S
ST GEORGE      MOSUNNY   64  50  59 E7        30.21S

$$

REGIONAL REPORTS     COLORADO/ARIZONA

CITY           SKY/WX    TMP DP  RH WIND       PRES   REMARKS
CRAIG, CO      CLOUDY    46  39  76 CALM      30.40R
GRAND JUNCTION LGT RAIN  60  50  69 N12       30.34R
RIFLE          CLOUDY    53  44  71 W3        30.37R
MONTROSE       CLOUDY    57  39  51 SE7       30.39S
CORTEZ         CLOUDY    55  52  89 CALM      30.41R
PAGE, AZ       LGT RAIN  62  58  86 CALM      30.29R
GRAND CANYON   CLOUDY    55  50  83 E3        30.39R
KINGMAN        CLOUDY    67  48  50 CALM      30.18R
FLAGSTAFF      CLOUDY    51  50  96 CALM      30.41S

$$

REGIONAL REPORTS    NEVADA/IDAHO/WYOMING

CITY           SKY/WX    TMP DP  RH WIND       PRES   REMARKS
LAS VEGAS, NV  MOCLDY    72  54  53 SW3       30.11R
ELY            MOCLDY    52  45  77 S8        30.30S
ELKO           CLOUDY    63  39  41 W5        30.18R
POCATELLO, ID  CLOUDY    55  49  80 CALM      30.18S
EVANSTON, WY   CLOUDY    54  37  52 S7        30.35S
ROCK SPRINGS   CLOUDY    58  40  51 S15       30.36S

$$




USA.gov is the U.S. government's official web portal to all federal, state and local government web resources and services.